This is the latest recevied weather packets stored in our database for station/object K0SNA. If no packets are shown the sender has not sent any weather packets the latest 10 day(s).
| Time | Temp. | Humidity | Pressure | Rain* | Wind** | Luminosity | Snow |
|---|---|---|---|---|---|---|---|
| 1777991568 | 7.22° C | 43% | 1011.2 hPa | 0 mm | - | 405 W/m² | - |
| 1777991264 | 6.67° C | 44% | 1011.3 hPa | 0 mm | - | 392 W/m² | - |
| 1777990962 | 7.22° C | 43% | 1011.2 hPa | 0 mm | - | 383 W/m² | - |
| 1777990660 | 7.22° C | 44% | 1011.2 hPa | 0 mm | - | 369 W/m² | - |
| 1777990357 | 6.67° C | 44% | 1011.1 hPa | 0 mm | - | 353 W/m² | - |
| 1777990052 | 6.11° C | 45% | 1010.9 hPa | 0 mm | - | 339 W/m² | - |
| 1777989749 | 6.11° C | 44% | 1011.1 hPa | 0 mm | - | 329 W/m² | - |
| 1777989446 | 5.56° C | 44% | 1011 hPa | 0 mm | - | 313 W/m² | - |
| 1777989143 | 5.56° C | 44% | 1011.2 hPa | 0 mm | - | 301 W/m² | - |
| 1777988838 | 5.56° C | 44% | 1011 hPa | 0 mm | - | 288 W/m² | - |
| 1777988536 | 6.11° C | 44% | 1010.9 hPa | 0 mm | - | 274 W/m² | - |
| 1777988233 | 6.11° C | 44% | 1010.8 hPa | 0 mm | - | 261 W/m² | - |
| 1777987929 | 5.56° C | 44% | 1010.8 hPa | 0 mm | - | 111 W/m² | - |
| 1777987625 | 5.56° C | 45% | 1010.9 hPa | 0 mm | - | 232 W/m² | - |
| 1777987323 | 5.56° C | 45% | 1011 hPa | 0 mm | - | 39 W/m² | - |
| 1777987020 | 5.56° C | 45% | 1010.9 hPa | 0 mm | - | 204 W/m² | - |
| 1777986717 | 5.56° C | 46% | 1010.8 hPa | 0 mm | - | 191 W/m² | - |
| 1777986414 | 5° C | 46% | 1010.7 hPa | 0 mm | - | 141 W/m² | - |
| 1777986113 | 5° C | 47% | 1010.8 hPa | 0 mm | - | 166 W/m² | - |
| 1777985809 | 5° C | 47% | 1010.8 hPa | 0 mm | - | 156 W/m² | - |
| 1777985507 | 5° C | 49% | 1010.5 hPa | 0 mm | - | 142 W/m² | - |
| 1777985203 | 5° C | 49% | 1010.5 hPa | 0 mm | - | 39 W/m² | - |
| 1777984899 | 5° C | 50% | 1010.2 hPa | 0 mm | - | 117 W/m² | - |
| 1777984590 | 5° C | 51% | 1010.2 hPa | 0 mm | - | 45 W/m² | - |
| 1777984287 | 4.44° C | 51% | 1010 hPa | 0 mm | - | 100 W/m² | - |
* Rain latest hour (hover to see other rain measurements)
** Current wind speed in m/s (hover to see current wind gust speed)